886  
ASUS41 KBOX 262310  
RWRBOX  
 
REGIONAL WEATHER ROUNDUP  
NATIONAL WEATHER SERVICE BOSTON/NORTON MA  
600 PM EST SAT NOV 26 2022  
 
NOTE: "FAIR" INDICATES FEW OR NO CLOUDS BELOW 12,000 FEET WITH NO  
SIGNIFICANT WEATHER AND/OR S TO VISIBILITY
.  
 
MAZALL-270000-  
EASTERN MASSACHUSETTS  
 
CITY SKY/WX TMP DP RH WIND PRES REMARKS
 
BOSTON CLEAR 49 29 46 SW9 29.87R  
BEVERLY CLEAR 47 27 45 W9 29.84R  
LAWRENCE CLEAR 48 28 46 SW9 29.86S  
BEDFORD CLEAR 47 29 49 SW5 29.85S  
NORWOOD CLEAR 48 30 49 SW3 29.88R  
MARSHFIELD N/A 46 28 49 VRB3G12 29.86S  
PLYMOUTH CLEAR 46 29 51 SW6 29.87R  
TAUNTON N/A N/A N/A N/A MISG 29.88S  
NEW BEDFORD CLEAR 46 31 55 W5 29.88S  

 
 
MAZALL-270000-  
CAPE COD AND THE ISLANDS  
 
CITY SKY/WX TMP DP RH WIND PRES REMARKS
 
FALMOUTH CLEAR 43 30 61 W7 29.89R  
HYANNIS CLEAR 44 29 55 W6 29.86S  
CHATHAM CLEAR 45 28 51 W6 29.88R  
PROVINCETOWN CLEAR 50 34 54 W13 29.87R  
NANTUCKET CLEAR 47 36 65 W8 29.89S  
MARTHAS VNYRD CLEAR 48 34 58 W7 29.90R  

 
 
MAZALL-270000-  
CENTRAL AND WESTERN MASSACHUSETTS  
 
CITY SKY/WX TMP DP RH WIND PRES REMARKS
 
WORCESTER CLEAR 47 27 45 W15G24 29.85F  
FITCHBURG CLEAR 49 25 39 W10G22 29.86S  
ORANGE CLEAR 38 27 64 S5 29.88F  
SPRINGFIELD CLEAR 37 28 68 SW6 29.88F  
WESTFIELD CLEAR 39 30 70 CALM 29.90S  
NORTH ADAMS CLEAR 40 29 64 W10 29.90S  
PITTSFIELD CLEAR 39 28 64 S5 29.89S  

 
 
RIZALL-270000-  
RHODE ISLAND  
 
CITY SKY/WX TMP DP RH WIND PRES REMARKS
 
PROVIDENCE CLEAR 47 29 49 W8 29.90S  
NEWPORT CLEAR 47 31 53 W3 29.90S  
BLOCK ISLAND CLEAR 49 37 63 W14G24 29.93S  
SMITHFIELD CLEAR 46 29 51 W8 29.89S  
WESTERLY CLEAR 48 29 47 SW3 29.92S  

 
 
CTZALL-270000-  
CONNECTICUT  
 
CITY SKY/WX TMP DP RH WIND PRES REMARKS
 
BRADLEY INTL PTCLDY 50 27 40 SW6 29.91F  
HARTFORD CLEAR 46 29 51 CALM 29.92S  
BRIDGEPORT CLEAR 50 36 58 SW7 29.94F  
DANBURY CLEAR 42 29 59 W5 29.95S  
GROTON CLEAR 49 33 54 W5 29.93R  
NEW HAVEN CLEAR 53 35 50 SW5 29.93F  
CHESTER FAIR 46 27 46 SW5 29.93R  
MERIDEN CLEAR 40 28 62 CALM 29.93S  
WILLIMANTIC CLEAR 40 29 64 S3 29.91S  
OXFORD CLEAR 48 28 46 W7 29.93F  

 
 
MEZ002-015-021-024-NHZ003-005-008-011-012-014-VTZ005-008-270000-  
NORTHERN NEW ENGLAND  
 
CITY SKY/WX TMP DP RH WIND PRES REMARKS
 
PORTLAND ME CLEAR 43 25 49 SW7 29.78F  
BANGOR ME CLEAR 33 25 72 CALM 29.76S  
CONCORD NH CLEAR 40 25 55 MISG 29.83R  
MANCHESTER NH CLEAR 48 26 42 SW5 29.82S  
NASHUA NH CLEAR 43 30 60 VRB3 29.85S  
PORTSMOUTH NH PTCLDY 45 26 47 W5 29.81S  
JAFFREY NH CLEAR 46 26 45 W9 29.84F  
KEENE NH CLEAR 41 29 62 CALM N/A  
BURLINGTON VT CLEAR 47 29 49 S8 29.79S  
MT. WASHINGTON PTCLDY 25 19 80 NW66G77 N/A WCI 2  

 
 
NYZ052-076-270000-  
EASTERN NEW YORK  
 
CITY SKY/WX TMP DP RH WIND PRES REMARKS
 
ALBANY PTCLDY 42 30 62 CALM 29.91S  
NEW YORK CITY PTCLDY 55 26 32 SW10 29.98R  

 
 
ANZALL-270000-  
MARINE OBSERVATIONS  
 
STATION/POSITION TIME TEMP WIND PRES VSBY WAVE
 
AIR SEA DIR/SP/G HT/PER  
(UTC) (F) (DEG/KT/KT) (MB) (MI) (FT/S)  
BOSTON BUOY 2250 52 250/ 16/ 19 1011.2F 2/ 3  
BUZZARDS BAY 2200 52 290/ 15/ 17 1013.0R  
NANTUCKET SOUND 2250 52 49 280/ 14/ 17 1011.9R 2/ 4  
MASS BAY-STELLWA 2104 51 51 270/ 12/ 16 1009.6R 1 7/8 2/ 3  
ISLE OF SHOALS 2200 50 250/ 11/ 13 1009.2S  
S OF BLOCK IS 2256 55 N/A 5/ 5  

 
   
.....................KEY......................
 
 
SKY/WX - SKY CONDITION/PRESENT WEATHER  
TMP - TEMPERATURE IN FAHRENHEIT  
DWPT - DEWPOINT IN FAHRENHEIT  
RH - RELATIVE HUMIDITY IN PERCENT  
WIND - DIRECTION AND SPEED IN MPH  
PRES - MEAN SEA LEVEL PRESSURE IN INCHES OF HG  
WCI - WIND CHILL INDEX  
VSB - VISIBILITY IN MILES  
HX - HEAT INDEX  
TC - TEMPERATURE IN CELSIUS  
VRB - VARIABLE WIND DIRECTION  
N/A - NOT AVAILABLE  
 
 
CLICK HERE TO GO TO PREVIOUS BULLETINS.

The Nexlab MA Page
The Nexlab RI Page
The Nexlab NH Page
The Nexlab CT Page Main Text Page